Weather History for KBAX - April, 2013

Change the Weather History Date:

Thursday, April 18, 2013

  Actual Average (KP58) Record (KP58)
Temperature  
Mean Temperature 57 °F -  
Max Temperature 73 °F 49 °F 84 °F (2002)
Min Temperature 41 °F 35 °F 27 °F (1997)
Degree Days  
Heating Degree Days 8    
Growing Degree Days 7 (Base 50)    
Moisture  
Dew Point 53 °F    
Average Humidity 95    
Maximum Humidity 100    
Minimum Humidity 75    
Precipitation  
Precipitation 0.00 in - - ()
Sea Level Pressure  
Sea Level Pressure 29.71 in    
Wind  
Wind Speed 10 mph (SSE)    
Max Wind Speed 25 mph    
Max Gust Speed 34 mph    
Visibility 8 miles    
Events Rain    
Averages and records for this station are not official NWS values.
T = Trace of Precipitation, MM = Missing Value Source: NWS Daily Summary

Daily Weather History Graph

Daily Weather History Graph

Search for Another Location

Airport or City:

Trip Planner

Search our weather history database for the weather conditions in past years. The results will help you decide how hot, cold, wet, or windy it might be!

Date:

Astronomy

Apr. 18, 2013 Rise Set
Actual Time 6:43 AM EDT 8:19 PM EDT
Civil Twilight 6:13 AM EDT 8:49 PM EDT
Nautical Twilight 5:36 AM EDT 9:26 PM EDT
Astronomical Twilight 4:57 AM EDT 10:06 PM EDT
Moon 12:52 PM EDT (4/18) 2:36 AM EDT (4/18)
Length of Visible Light 14h 36m
Length of Day
13h 35m
First Quarter, 51% of the Moon is Illuminated
Apr 18
First Quarter
Apr 25
Full
May 2
Last Quarter
May 9
New
May 18
First Quarter

Hourly Weather History & Observations

Time (EDT) Temp. Windchill Dew Point Humidity Pressure Visibility Wind Dir Wind Speed Gust Speed Precip Events Conditions
12:13 AM 43.2 °F 36.6 °F 40.1 °F 89% 30.06 in 10.0 mi ESE 12.7 mph 17.3 mph N/A   Overcast
12:33 AM 43.0 °F 37.2 °F 40.1 °F 90% 30.04 in 10.0 mi ESE 10.4 mph 17.3 mph N/A   Overcast
12:53 AM 42.8 °F 36.6 °F 40.1 °F 90% 30.03 in 10.0 mi SE 11.5 mph 17.3 mph N/A   Overcast
1:13 AM 42.8 °F 36.6 °F 40.1 °F 90% 30.01 in 10.0 mi ESE 11.5 mph 18.4 mph N/A   Overcast
1:33 AM 42.8 °F 37.0 °F 40.1 °F 90% 30.01 in 10.0 mi SE 10.4 mph 19.6 mph N/A   Overcast
1:53 AM 42.1 °F 37.1 °F 39.9 °F 92% 30.00 in 10.0 mi SE 8.1 mph 17.3 mph N/A Rain Light Rain
2:13 AM 42.1 °F 36.6 °F 40.3 °F 93% 29.96 in 10.0 mi ESE 9.2 mph 16.1 mph N/A Rain Light Rain
2:33 AM 41.9 °F 36.3 °F 40.3 °F 94% 29.95 in 10.0 mi ESE 9.2 mph - N/A   Overcast
2:53 AM 41.9 °F 37.5 °F 40.3 °F 94% 29.94 in 10.0 mi East 6.9 mph - N/A Rain Light Rain
3:13 AM 41.9 °F - 40.6 °F 95% 29.95 in 10.0 mi Calm Calm - N/A Rain Light Rain
3:33 AM 41.5 °F 38.6 °F 40.6 °F 97% 29.93 in 4.0 mi East 4.6 mph - N/A   Overcast
3:53 AM 41.4 °F 39.4 °F 41.0 °F 99% 29.93 in 5.0 mi East 3.5 mph - N/A   Overcast
4:12 AM 41.4 °F 39.4 °F 41.2 °F 99% 29.92 in 3.0 mi ENE 3.5 mph - N/A   Unknown
4:33 AM 41.2 °F 39.2 °F 41.2 °F 100% 29.91 in 3.0 mi East 3.5 mph - N/A   Unknown
4:53 AM 41.0 °F 38.0 °F 41.0 °F 100% 29.86 in 3.0 mi East 4.6 mph - N/A   Overcast
5:13 AM 41.5 °F - 41.5 °F 100% 29.87 in 1.5 mi Calm Calm - N/A   Unknown
5:34 AM 41.9 °F - 41.9 °F 100% 29.86 in 3.0 mi Calm Calm - N/A   Unknown
5:53 AM 42.1 °F 39.2 °F 42.1 °F 100% 29.90 in 0.8 mi SSE 4.6 mph - N/A   Unknown
6:14 AM 43.3 °F 38.1 °F 43.3 °F 100% 29.82 in 1.2 mi ESE 9.2 mph - N/A   Unknown
6:34 AM 47.5 °F - 47.5 °F 100% 29.82 in 3.0 mi SSE 11.5 mph 18.4 mph N/A   Unknown
6:54 AM 47.3 °F - 46.8 °F 98% 29.84 in 1.5 mi ESE 6.9 mph - N/A   Unknown
7:13 AM 45.5 °F 41.3 °F 45.1 °F 99% 29.82 in 10.0 mi ESE 8.1 mph - N/A Rain Light Rain
7:33 AM 45.0 °F - 44.8 °F 99% 29.83 in 10.0 mi Calm Calm - N/A   Overcast
7:54 AM 44.8 °F 42.4 °F 44.8 °F 100% 29.81 in 10.0 mi East 4.6 mph - N/A   Overcast
8:13 AM 44.6 °F 40.7 °F 44.6 °F 100% 29.78 in 10.0 mi East 6.9 mph - N/A   Overcast
8:33 AM 44.4 °F 41.2 °F 44.4 °F 100% 29.77 in 10.0 mi East 5.8 mph - N/A   Overcast
8:54 AM 44.6 °F 40.2 °F 44.6 °F 100% 29.75 in 10.0 mi ESE 8.1 mph - N/A   Overcast
9:13 AM 44.6 °F 41.4 °F 44.6 °F 100% 29.74 in 10.0 mi East 5.8 mph - N/A   Overcast
9:33 AM 45.5 °F 41.8 °F 45.5 °F 100% 29.72 in 7.0 mi SE 6.9 mph - N/A   Overcast
9:54 AM 46.4 °F 42.4 °F 46.4 °F 100% 29.70 in 7.0 mi ESE 8.1 mph - N/A   Overcast
10:13 AM 48.6 °F - 48.6 °F 100% 29.69 in 7.0 mi SSE 9.2 mph - N/A   Overcast
10:33 AM 51.3 °F - 51.3 °F 100% 29.68 in 7.0 mi South 10.4 mph - N/A   Overcast
10:53 AM 53.4 °F - 53.2 °F 99% 29.67 in 7.0 mi SSE 10.4 mph - N/A   Overcast
11:13 AM 55.9 °F - 55.6 °F 99% 29.65 in 7.0 mi South 15.0 mph 18.4 mph N/A   Overcast
11:34 AM 58.8 °F - 57.6 °F 96% 29.64 in 10.0 mi South 12.7 mph - N/A   Scattered Clouds
11:53 AM 60.4 °F - 58.5 °F 93% 29.63 in 10.0 mi South 13.8 mph - N/A   Mostly Cloudy
12:13 PM 62.8 °F - 60.1 °F 91% 29.60 in 10.0 mi South 13.8 mph - N/A   Mostly Cloudy
12:34 PM 65.1 °F - 62.2 °F 90% 29.59 in 10.0 mi South 15.0 mph 20.7 mph N/A   Mostly Cloudy
12:53 PM 68.2 °F - 63.5 °F 85% 29.58 in 10.0 mi South 18.4 mph 24.2 mph N/A   Scattered Clouds
1:13 PM 69.3 °F - 64.0 °F 83% 29.57 in 10.0 mi South 17.3 mph 23.0 mph N/A   Mostly Cloudy
1:34 PM 71.6 °F - 65.3 °F 80% 29.54 in 10.0 mi South 19.6 mph 24.2 mph N/A   Mostly Cloudy
1:53 PM 73.0 °F - 65.3 °F 77% 29.53 in 10.0 mi South 19.6 mph 28.8 mph N/A   Mostly Cloudy
2:13 PM 73.4 °F - 64.9 °F 75% 29.51 in 10.0 mi South 18.4 mph 29.9 mph N/A   Overcast
2:34 PM 69.6 °F - 65.3 °F 86% 29.52 in 3.0 mi South 12.7 mph - N/A Rain Heavy Rain
2:53 PM 67.5 °F - 65.8 °F 95% 29.54 in 2.0 mi SSW 13.8 mph 17.3 mph N/A Rain Rain
3:13 PM 68.0 °F - 66.2 °F 94% 29.53 in 10.0 mi South 17.3 mph 23.0 mph N/A   Overcast
3:33 PM 68.4 °F - 65.1 °F 89% 29.54 in 10.0 mi SSW 17.3 mph 23.0 mph N/A   Overcast
3:54 PM 68.4 °F - 64.0 °F 86% 29.54 in 10.0 mi SSW 18.4 mph 23.0 mph N/A   Overcast
4:33 PM 67.1 °F - 62.6 °F 85% 29.57 in 10.0 mi WSW 12.7 mph 17.3 mph N/A   Overcast
5:13 PM 61.7 °F - 59.7 °F 93% 29.60 in 7.0 mi West 13.8 mph - N/A Rain Rain
5:33 PM 61.0 °F - 59.7 °F 96% 29.60 in 7.0 mi WSW 8.1 mph - N/A Rain Light Rain
5:54 PM 61.0 °F - 60.1 °F 97% 29.59 in 7.0 mi SW 8.1 mph - N/A Rain Light Rain
6:13 PM 61.3 °F - 60.8 °F 98% 29.57 in 7.0 mi SW 6.9 mph - N/A Rain Rain
6:34 PM 61.9 °F - 61.2 °F 97% 29.57 in 10.0 mi SSW 5.8 mph - N/A Rain Light Rain
6:54 PM 61.9 °F - 61.7 °F 99% 29.58 in 10.0 mi SSW 5.8 mph - N/A   Mostly Cloudy
7:13 PM 62.8 °F - 62.2 °F 98% 29.59 in 10.0 mi WSW 8.1 mph - N/A   Mostly Cloudy
7:34 PM 63.0 °F - 61.7 °F 96% 29.59 in 10.0 mi WSW 6.9 mph - N/A   Overcast
7:54 PM 62.8 °F - 61.5 °F 96% 29.59 in 10.0 mi SW 6.9 mph - N/A   Drizzle
8:13 PM 62.6 °F - 61.3 °F 96% 29.60 in 10.0 mi SW 6.9 mph - N/A   Drizzle
8:34 PM 62.6 °F - 61.2 °F 95% 29.58 in 10.0 mi SSW 8.1 mph - N/A Rain Light Rain
8:54 PM 62.1 °F - 60.8 °F 96% 29.59 in 10.0 mi SW 6.9 mph - N/A   Light Drizzle
9:13 PM 61.5 °F - 60.1 °F 95% 29.60 in 10.0 mi SSW 8.1 mph - N/A Rain Light Rain
9:34 PM 61.2 °F - 60.4 °F 97% 29.59 in 10.0 mi South 10.4 mph - N/A Rain Light Rain
9:54 PM 61.2 °F - 60.4 °F 97% 29.55 in 10.0 mi SSE 15.0 mph - N/A Rain Light Rain
10:13 PM 61.0 °F - 60.1 °F 97% 29.52 in 10.0 mi South 23.0 mph 28.8 mph N/A Rain Light Rain
10:34 PM 60.8 °F - 59.7 °F 96% 29.53 in 10.0 mi South 25.3 mph 29.9 mph N/A Rain Light Rain
10:54 PM 60.8 °F - 59.2 °F 94% 29.50 in 10.0 mi South 25.3 mph 33.4 mph N/A   Overcast
11:34 PM 60.4 °F - 58.5 °F 93% 29.51 in 10.0 mi South 25.3 mph 34.5 mph N/A   Overcast
11:53 PM 60.4 °F - 58.5 °F 93% 29.53 in 10.0 mi South 25.3 mph 33.4 mph N/A   Overcast